Location: Bredow
(53.4495°N, 14.5731°E)
Time: 00:19:45
(UTC+00:00)

Daily predictions for brighter satellites

Satellite Brightness Start Highest point End
(mag) Time Altitude Azimuth Time Altitude Azimuth Time Altitude Azimuth
Cosmos 1536 Rocket 3.6 00:05:13 10° N 00:09:35 75° ENE 00:11:19 36° SSE
Cosmos 2219 Rocket 2.9 00:04:30 10° NW 00:09:42 37° WSW 00:11:13 32° SW
Cosmos 1437 2.4 00:08:26 10° NNW 00:11:26 87° ENE 00:11:26 87° ENE
Cosmos 1464 Rocket 4.1 00:08:47 31° SSW 00:11:55 67° WNW 00:18:07 10° N
Cosmos 1782 Rocket 4.1 00:12:54 35° WSW 00:14:16 48° WNW 00:18:30 10° N
Lacrosse 4 Rocket 1.6 00:13:01 35° WSW 00:14:40 65° NW 00:18:51 10° NE
FALCON 9 DEB 3.0 00:15:49 30° W 00:17:26 84° S 00:20:56 10° E
IRAS Rocket 4.3 00:14:44 23° SSE 00:18:22 82° ENE 00:24:00 10° NNW
Cosmos 1354 Rocket 4.0 00:16:38 34° SSW 00:19:01 82° WNW 00:24:25 10° NNE
SL-4 R/B 2.1 00:22:19 42° SE 00:22:19 42° SE 00:24:50 10° ESE
SL-16 R/B 2.9 00:15:58 10° NNW 00:21:37 55° NE 00:27:11 10° SE
Cosmos 968 Rocket 4.0 00:19:12 27° WSW 00:21:49 52° WNW 00:26:51 10° NNE
Meteor 2-5 Rocket 4.4 00:18:48 10° N 00:24:21 51° ENE 00:29:34 11° SE
COSMOS 2428 3.6 00:22:43 10° NW 00:27:43 31° WSW 00:29:11 28° SW
Nadezhda 4 Rocket 4.4 00:26:13 10° NNW 00:32:16 50° W 00:35:19 28° SSW
Cosmos 2360 Rocket 4.3 00:31:41 10° W 00:32:31 10° W 00:33:22 10° WSW
SL-16 R/B 2.5 00:28:37 21° SSE 00:33:03 86° WSW 00:39:22 10° NNW
NPP 4.3 00:28:23 10° NNE 00:33:35 47° E 00:36:53 21° SSE
CZ-2D R/B 2.6 00:29:26 10° NNE 00:34:50 55° E 00:38:05 24° S
Cosmos 1680 Rocket 4.3 00:29:58 10° NNW 00:35:06 51° ENE 00:40:11 10° SE
BREEZE-M TANK 3.8 00:36:08 22° SSE 00:36:08 22° SSE 00:38:44 10° ESE
CENTAUR R/B 3.8 00:30:01 10° W 00:36:22 45° NNW 00:43:51 10° NE
USA 267 3.3 00:31:10 10° ESE 00:37:43 84° NNE 00:44:17 10° WNW
Cosmos 1607 4.1 00:31:17 10° NW 00:37:45 82° NE 00:44:15 10° SE
Cosmos 2034 Rocket 4.2 00:35:41 27° SW 00:39:04 60° WNW 00:45:21 10° N
GEOS 3 Rocket 3.7 00:34:25 10° NE 00:39:52 75° SE 00:42:46 28° SW
Cosmos 1428 Rocket 4.5 00:35:27 10° NNW 00:41:43 85° W 00:46:04 21° S
KORONAS-FOTON 3.7 00:38:16 10° N 00:42:05 81° ENE 00:43:45 32° SSE
ADEOS II 3.5 00:38:36 10° NNE 00:43:14 30° E 00:47:27 12° SSE
Okean 2 Rocket 3.3 00:41:46 34° SW 00:43:33 59° WNW 00:48:01 10° N
Cosmos 1092 Rocket 4.1 00:38:18 10° NNW 00:44:28 62° W 00:48:01 26° SSW
Cosmos 1980 4.0 00:41:34 10° NW 00:47:00 48° WSW 00:49:51 26° S
Cosmos 2333 Rocket 3.7 00:43:05 10° NW 00:47:06 20° W 00:48:11 19° WSW
Helios 1B rocket 3.4 00:43:23 10° N 00:47:08 35° WNW 00:48:49 25° WSW
Cosmos 2297 Rocket 2.6 00:45:36 25° S 00:48:43 55° ESE 00:54:14 10° NE
Cosmos 2219 3.4 00:45:50 27° S 00:48:53 63° ESE 00:54:26 10° NE
Meteor 1-29 3.8 00:47:56 10° N 00:51:12 39° WNW 00:52:12 31° WSW
Cosmos 1777 Rocket 4.0 00:49:00 29° SSW 00:51:48 80° ESE 00:57:08 10° NNE
Cosmos 1655 Rocket 4.5 00:46:28 10° N 00:52:43 61° ENE 00:58:52 10° SSE
Cosmos 1766 4.0 00:51:10 23° SSE 00:53:14 46° E 00:56:59 10° NNE
Cosmos 44 Rocket 4.4 00:50:35 10° WNW 00:54:39 25° WSW 00:55:08 25° SW
UNK 3.8 00:52:22 28° S 00:54:43 62° WSW 00:59:23 10° NNW
Cosmos 2237 Rocket 2.6 00:51:41 10° NW 00:57:01 43° WSW 00:59:51 25° SSW
Cosmos 1300 Rocket 4.1 00:57:53 28° SW 00:59:42 44° WNW 01:03:52 10° N
NOSS 8 (A) 4.0 01:00:39 46° SW 01:01:25 83° SE 01:04:27 10° NE
CZ-4B R/B 4.0 00:56:58 10° NNE 01:01:38 48° E 01:04:55 18° S
Cosmos 1626 2.6 00:57:58 10° N 01:01:40 59° ENE 01:04:26 17° SSE
Okean 1 Rocket 3.0 01:01:02 27° S 01:03:21 81° ESE 01:07:44 10° NNE
CZ-4C R/B 3.4 01:04:19 36° SW 01:05:14 46° W 01:08:41 10° NNW
Cosmos 923 Rocket 4.0 00:59:53 10° NNW 01:05:16 83° WSW 01:10:35 10° SSE
Cosmos 2098 Rocket 4.0 01:07:04 10° N 01:11:30 56° ENE 01:17:04 10° SSE
SL-08 R/B 4.1 01:06:57 10° SE 01:11:46 54° ENE 01:16:37 10° N
Cosmos 158 Rocket 4.0 01:08:13 10° NNW 01:13:36 89° SW 01:19:01 10° SSE
Cosmos 2151 Rocket 4.2 01:12:29 25° SW 01:14:38 42° WNW 01:18:51 10° N
Timation 2 Rocket 4.0 01:14:34 21° SW 01:18:51 70° NW 01:24:53 10° NNE
Meteor 2-19 Rocket 4.4 01:15:54 10° NNW 01:22:05 87° W 01:28:15 10° S
SL-14 R/B 3.2 01:21:21 10° NNW 01:25:20 85° W 01:28:23 16° S
Cosmos 1805 3.3 01:24:26 25° SSW 01:26:32 68° WNW 01:30:26 10° N
DNEPR-1 R/B 4.4 01:21:01 10° NW 01:26:36 42° WSW 01:31:06 11° S
Meteor 1-15 Rocket 4.3 01:22:53 21° SSW 01:26:43 67° WNW 01:32:19 10° N
ERBS 2.9 01:24:33 10° WNW 01:27:33 32° SW 01:30:31 10° SSE
SJ 16-02 1.8 01:25:10 18° S 01:28:16 55° ESE 01:32:36 10° NNE
Cosmos 1943 4.3 01:22:57 10° NNW 01:28:24 47° NE 01:33:48 10° ESE
Resurs 1-4 Rocket 2.4 01:30:30 10° N 01:35:41 55° WNW 01:39:24 18° SW
Cosmos 2227 Rocket 2.2 01:33:34 19° SSW 01:37:43 85° WNW 01:43:26 10° NNE
Cosmos 1455 Rocket 3.5 01:34:24 12° S 01:38:21 59° E 01:42:44 10° NNE
Cosmos 1674 3.9 01:35:25 10° NW 01:38:29 24° W 01:39:47 20° WSW
Cosmos 1758 4.4 01:37:54 10° SSE 01:41:44 43° E 01:45:34 10° NNE
Cosmos 2180 Rocket 4.5 01:36:43 15° SSW 01:41:56 82° W 01:48:07 10° N
Cosmos 1892 Rocket 3.6 01:37:42 10° NNW 01:42:09 64° W 01:46:07 13° S
Cosmos 1733 3.3 01:42:54 20° SSW 01:45:20 60° WNW 01:49:10 10° N
USA 215 3.6 01:39:40 10° ENE 01:46:07 56° SE 01:51:29 15° SW
ATLAS 3B R/B 3.8 01:43:23 10° W 01:49:34 39° NNW 01:55:53 10° NE
Cosmos 2279 Rocket 4.2 01:44:46 16° SSW 01:49:44 61° WNW 01:55:53 10° N
Cosmos 724 4.4 01:43:58 10° NW 01:49:59 90° NE 01:56:05 10° SE
Cosmos 1461 4.1 01:47:03 14° S 01:50:28 38° ESE 01:54:43 10° NE
COBE Rocket 4.3 01:47:33 16° SSW 01:51:01 41° W 01:55:26 10° NNW
Lacrosse 4 Rocket 3.7 01:51:05 10° WNW 01:54:06 19° NNW 01:57:05 10° NNE
FALCON 9 DEB 3.5 01:50:59 10° W 01:54:19 42° SSW 01:57:37 10° SE
Cosmos 2082 3.7 01:53:29 15° SSW 01:58:15 85° ESE 02:03:54 10° NNE
Cosmos 1340 Rocket 3.2 01:54:23 10° S 01:58:20 61° E 02:02:16 10° NNE
Cosmos 2112 Rocket 4.2 01:54:22 10° NW 01:59:25 48° WSW 02:04:24 10° S
SL-4 R/B 2.7 01:58:02 11° W 02:00:34 23° SSW 02:03:19 10° SSE
ERS-2 3.4 02:00:01 10° SE 02:03:29 44° ENE 02:06:59 10° N
Meteor 1-24 Rocket 4.1 01:58:49 10° NNW 02:03:58 41° W 02:08:55 10° SSW
CBERS-1 4.2 01:59:28 10° N 02:04:34 64° WNW 02:09:09 13° SSW
Cosmos 1953 3.6 02:00:59 10° SSE 02:04:45 40° E 02:08:33 10° NNE
SL-16 R/B 2.8 02:00:25 10° NW 02:05:33 35° WSW 02:10:38 10° S
Cosmos 1726 3.1 02:05:17 10° SSE 02:08:48 45° E 02:12:20 10° NNE
ARIANE 5 R/B 2.7 02:06:49 10° NNE 02:12:05 81° ESE 02:17:19 10° SSW
Cosmos 1937 Rocket 3.9 02:07:19 10° S 02:12:33 62° ESE 02:17:50 10° NNE
CZ-2D R/B 3.3 02:09:52 10° N 02:14:41 32° WNW 02:19:24 10° WSW
IDEFIX/ARIANE 42P 3.1 02:09:48 10° NNE 02:14:57 60° E 02:20:06 10° S
H-2A R/B 2.2 02:11:18 10° SSE 02:15:25 74° ENE 02:19:31 10° NNW
Cosmos 1898 Rocket 3.6 02:11:42 10° SSW 02:16:53 85° ESE 02:22:08 10° NNE
Cosmos 1680 Rocket 4.3 02:12:26 10° NW 02:17:01 32° WSW 02:21:36 10° SSW
SL-16 R/B 4.0 02:13:42 12° SW 02:17:34 20° W 02:21:58 10° NW
USA 267 3.4 02:14:48 10° SE 02:21:05 49° SW 02:27:25 10° WNW
NOSS 3-1 (C) 3.8 02:17:30 10° SSW 02:22:57 58° SE 02:29:22 10° NE
ADEOS II 2.4 02:18:04 10° N 02:23:11 53° WNW 02:28:17 10° SW
Cosmos 1544 Rocket 3.6 02:20:24 10° SSW 02:24:52 72° WNW 02:29:22 10° N
IRS-1D 4.1 02:22:16 10° N 02:26:59 42° WNW 02:31:46 10° SW
CZ-4C R/B 2.8 02:24:49 10° SSE 02:28:03 87° WSW 02:31:23 10° NNW
Cosmos 990 Rocket 4.0 02:23:24 10° SSW 02:28:36 75° WNW 02:33:48 10° NNE
CENTAUR R/B 4.3 02:22:00 10° WNW 02:28:45 41° N 02:36:28 10° ENE
Cosmos 2263 Rocket 3.1 02:25:46 10° S 02:31:03 46° ESE 02:36:21 10° NE
ERS-1 4.5 02:26:12 10° NNE 02:31:11 73° WNW 02:36:07 10° SSW
CZ-4B R/B 3.6 02:28:48 10° SE 02:31:41 29° ENE 02:34:33 10° N
IRS-1C 4.3 02:27:33 10° N 02:32:49 60° WNW 02:38:03 10° SW
Cosmos 1703 3.8 02:28:52 10° N 02:32:51 66° ENE 02:36:48 10° SSE
Cosmos 2297 Rocket 3.1 02:27:45 10° WSW 02:33:01 38° NW 02:38:18 10° NNE
Cosmos 2219 4.3 02:28:18 10° WSW 02:33:24 34° NW 02:38:32 10° NNE
Cosmos 1626 4.0 02:34:21 10° NW 02:36:28 15° W 02:38:35 10° WSW
Meteor 2-10 4.3 02:31:09 10° S 02:36:37 86° ESE 02:42:19 10° NNE
Cosmos 1602 Rocket 3.6 02:35:47 10° NNW 02:40:07 60° W 02:44:24 10° S
CZ-4B R/B 4.5 02:36:01 10° N 02:40:10 30° WNW 02:44:16 10° WSW
Meteor 1-28 Rocket 4.3 02:37:10 10° SSW 02:40:24 26° W 02:43:40 10° NW
CZ-2C R/B 3.8 02:38:54 10° NNE 02:43:10 36° E 02:47:23 10° SSE
Cosmos 1603 3.9 02:39:40 10° NW 02:45:17 55° WSW 02:50:51 10° S
Cosmos 1470 3.6 02:42:12 10° SW 02:45:53 37° WNW 02:49:38 10° N
Meteor 2-21 Rocket 4.5 02:40:07 10° NNW 02:46:07 67° W 02:52:07 10° S
Meteor 2-16 Rocket 4.5 02:43:22 10° NNW 02:49:32 74° W 02:55:40 10° S
SL-08 R/B 4.5 02:45:41 10° SSW 02:49:52 27° W 02:54:04 10° NW
